Regional Weather Roundup
Issued by NWS

Home | Current Version | Previous Version | Text Only | Print | Product List | Glossary On
Versions: 1 2 3 4 5 6 7 8 9 10 11 12 13 14 15 16 17 18 19 20 21 22 23 24 25 26 27
000
ASUS45 KBOU 191707
RWRCO

WEATHER ROUNDUP FOR COLORADO
NATIONAL WEATHER SERVICE DENVER/BOULDER CO
1100 AM MDT SAT AUG 19 2017

NOTE: "FAIR" INDICATES FEW OR NO CLOUDS BELOW 12000 FEET WITH NO
SIGNIFICANT WEATHER AND/OR OBSTRUCTIONS TO VISIBILITY.

COZ001>005-013-030-031-191800-
...NORTHWEST COLORADO...

CITY           SKY/WX    TMP DP  RH WIND       PRES   REMARKS
CRAIG          FAIR      77  35  21 CALM      30.24F
HAYDEN         FAIR      72  32  23 NE6       30.27F
MEEKER         FAIR      75  35  23 SW3       30.25F
RABBIT EARS PA FAIR      59  32  36 W7        30.54R
STEAMBOAT SPGS FAIR      71  38  30 CALM      30.28S
WALDEN         FAIR      70  34  26 CALM      30.36S
$$

COZ006>008-011-191800-
...WEST CENTRAL VALLEYS...

CITY           SKY/WX    TMP DP  RH WIND       PRES   REMARKS
GRAND JUNCTION FAIR      80  37  21 SE7       30.15S
MONTROSE       FAIR      76  45  33 NW12      30.22S
EAGLE          FAIR      70  33  25 VRB3      30.28F
RIFLE          FAIR      73  35  25 CALM      30.20F
DELTA          FAIR      78  37  22 CALM      30.19S
NUCLA          FAIR      77  34  20 NW5       30.27R
$$

COZ017>023-064>068-191800-
...SOUTHWEST COLORADO...

CITY           SKY/WX    TMP DP  RH WIND       PRES   REMARKS
DURANGO        FAIR      77  37  23 NE7       30.29F
CORTEZ         FAIR      83  34  17 W5        30.22F
PAGOSA SPRINGS FAIR      74  33  22 CALM      30.38S
TELLURIDE      FAIR      71  24  16 W5        30.48S
WOLF CREEK PAS FAIR      55  32  41 SW7       30.72S
$$

COZ009-010-012-014-032>034-037-058>063-191800-
...CENTRAL COLORADO...

CITY           SKY/WX    TMP DP  RH WIND       PRES   REMARKS
ASPEN          FAIR      75  35  23 N5        30.33F
BUENA VISTA    FAIR      69  36  29 E5        30.37F
COPPER MTN     PTSUNNY   59  25  27 NW5       30.66S
BERTHOUD PASS  FAIR      50  45  81 W35G45    30.66R
COTTONWOOD PAS FAIR      72  28  20 N5        30.51S
GUNNISON       FAIR      64  38  38 CALM      30.39F
KREMMLING      FAIR      73  41  31 CALM      30.32F
LEADVILLE      PTSUNNY   65  24  21 NW8       30.46F
MONARCH PASS   FAIR      55  28  35 W15G24    30.78S
SALIDA         FAIR      73  39  30 CALM      30.40F
SUNLIGHT       FAIR      61  32  33 W9        30.60S
WILKERSON PASS FAIR      59  30  33 SW7       30.64R
$$

COZ069>075-191800-
...SAN LUIS VALLEY/SANGRE DE CRISTO MOUNTAINS...

CITY           SKY/WX    TMP DP  RH WIND       PRES   REMARKS
ALAMOSA        FAIR      72  41  32 SW6       30.35F
DEL NORTE      FAIR      70  42  36 SE6       30.39F
LA VETA PASS   NOT AVBL
SAGUACHE       FAIR      70  43  37 SE6       30.39F
$$

COZ035-036-038>040-191800-
...NORTHERN COLORADO FRONT RANGE...

CITY           SKY/WX    TMP DP  RH WIND       PRES   REMARKS
DENVER INTL AP FAIR      86  40  19 SW7       30.11F
DMNS CITY PARK   N/A     86  44  22 SE6G13    30.10F
AURORA         MOSUNNY   85  45  24 SW6       30.14S
FRONT RANGE AP FAIR      86  37  17 SW6       30.12F
ERIE MUNI ARPT FAIR      86  38  18 SE6       30.12F
BOULDER MUN AP FAIR      84  45  24 CALM      30.08F
CENTENNIAL     FAIR      84  35  17 VRB5      30.15F
BROOMFIELD     MOSUNNY   84  45  24 SE7       30.13F
FORT COLLINS   FAIR      82  52  35 VRB5      30.08F
LONGMONT       FAIR      86  44  23 E3        30.09F
$$

COZ041-046-047-076>085-087-088-191800-
...PIKES PEAK/PALMER DIVIDE AND SOUTHERN FOOTHILLS...

CITY           SKY/WX    TMP DP  RH WIND       PRES   REMARKS
COLO. SPRINGS  PTSUNNY   84  48  28 SW9       30.20F
A. F. ACADEMY  FAIR      82  33  16 W10G17    30.21F
SCHRIEVER AFB  FAIR      82  45  26 SW8       30.20F
CHEYENNE MTN   PTSUNNY   77  46  33 E6        30.21S
ELLICOTT       NOT AVBL
FALCON         FAIR      82  28  14 W9        30.26S
FORT CARSON    FAIR      79  51  38 CALM      30.18S
LIMON          FAIR      82  52  35 CALM      30.12F
MONUMENT HILL  FAIR      77  36  22 CALM      30.27F
CANON CITY     SUNNY     86  45  23 W14       30.14F
WALSENBURG     FAIR      90  36  14 W13G18    30.19F
TRINIDAD       FAIR      84  48  28 E6        30.18F
$$

COZ042>045-048>051-090-091-191800-
...NORTHEAST COLORADO...

CITY           SKY/WX    TMP DP  RH WIND       PRES   REMARKS
GREELEY ARPT   FAIR      82  54  37 VRB3      30.07F
AKRON          FAIR      84  52  33 W8        30.05F
BURLINGTON     FAIR      82  63  52 SW14      30.06S
WRAY           NOT AVBL
YUMA           FAIR      82  41  23 S5        30.02S
STERLING       FAIR      82  59  44 SW10      29.99F
HOLYOKE        FAIR      84  64  51 S9        30.00F
FORT MORGAN    FAIR      84  44  24 W10       30.05F
$$

COZ086-089-092>099-191800-
...SOUTHEAST COLORADO...

CITY           SKY/WX    TMP DP  RH WIND       PRES   REMARKS
PUEBLO         FAIR      81  51  35 VRB6      30.09F
LA JUNTA       FAIR      82  57  42 SW5       30.07F
LAMAR          FAIR      84  60  44 CALM      30.03F
SPRINGFIELD      N/A     87  61  41 S15G23    30.09F
$$




USA.gov is the U.S. government's official web portal to all federal, state and local government web resources and services.